Location: M?digepalle
(16.1753°N, 80.3496°E)
Time: 07:57:41
(UTC+00:00)

Cosmos 44 Rocket - Pass Details

Date: 29 October 2020
Orbit: 642 x 748 km, 65.1° (Epoch: 28 November)

Event Time Altitude Azimuth Distance (km) Brightness Sun altitude
Exits shadow 23:42:08 13° 316° (NW) 2,071 5.3 -13.3°
Maximum altitude 23:46:26 40° 250° (WSW) 1,084 3.9 -12.2°
Drops below altitude 10° 23:51:14 10° 181° (S) 2,243 6.1 -11.1°
Sets 23:53:43 0° 173° (S) 3,155 6.9 -10.5°
